Starlink 32914

operational
NORAD ID: 63086 Int'l Des: 2025-037 Owner: SPXS Country: US Constellation: starlink
LEOCIRCULAR

Über Starlink 32914

Beschreibung wird geladen...

Live-Position

3D-Globus wird geladen...

Nächste Überflüge

Höhenverlauf

Altitude vs Time

uPlot chart will show altitude changes over time

Zweizeiliger Elementsatz

1 63086U 25037K 25258.92453487 .00002651 00000-0 22983-3 0 9995
2 63086 70.0013 75.1080 0002799 269.9413 90.1426 14.98337129 32428
Epoch: 15. Sept. 2025 • Age: 17 hours

Aktueller Status

Höhe 574.4 km
Geschwindigkeit 7.57 km/s
Subsatellitenpunkt 0.64°N, 32.17°E
Startdatum 23. Feb. 2025
Alter 0.5 years
Typ internet

Technische Details

Klassifizierung Payload
Masse 730.00 kg
Trockenmasse 700.00 kg
Gesamtmasse 730.00 kg
Länge 0.30 m
Durchmesser 4.10 m
Spannweite 29.00 m
Form Box + pan
Hersteller SPXS
Bus-Typ Starlink V2M
Phasenstatus In Orbit
Besitzer/Staat SPXS/US

Große Konstellationen

Loading constellations...